sat.trackr.live / text

‹ back to catalog

FLOCK 4BE-27

NORAD 60513 · 2024-149AX

PAYLOAD ACTIVE UNKNOWN

§ Identity

Operator
Country
US
Launch date
2024-08-16
Launch site
AFWTR
Launch vehicle
Mass (kg)
RCS (m²)

Purposes: earth_obs

External: N2YO · Heavens-Above · Gunter

§ Orbital elements

Epoch: 2026-05-24T18:43:04.816704Z

Period
93.87 min
Inclination
97.3823°
Eccentricity
0.0004510
Mean motion
15.33976053 rev/d
Perigee alt
460.9 km
Apogee alt
467.0 km
Semi-major
6,842.1 km
B*
2.3856e-4
RAAN
226.6277°
Arg perigee
47.9286°
Mean anomaly
312.2340°
Rev number
9,855

§ Raw data

FLOCK 4BE-271 60513U 24149AX  26144.77991686  .00007764  00000+0  23856-3 0  99952 60513  97.3823 226.6277 0004510  47.9286 312.2340 15.33976053 98551

JSON: /api/v1/satellites/60513 · /tle

For live sub-satellite position, see the globe view (requires WebGL).

§ Visibility from observer

Set your observer location to see the next 7 days of passes ≥ 10°. The values pass through the URL so the page stays shareable.

No JS? Fill the form by hand. The geolocation button needs JavaScript.